EUTELSAT 3B

Last updated on Tue Sep 16 2025 00:02:48 GMT+0000 (Coordinated Universal Time)

1 39773U 14030A 25258.39489241 .00000004 00000+0 00000+0 0 9991 2 39773 0.0662 6.3225 0004290 170.1164 323.4247 1.00272661 41317
UTC large
Height (km)
Speed (km/s)
/
Latitude / Longitude
Inclination (degrees)
Orbital Period (minutes)
Azimuth
Elevation
Range (km)
Doppler Factor

Next 0 passes for location: London (51.5072 / 0.1276)

Sorry there are no passes over London.